Tracking 18957 objects as of 23-Jan-2018
HD Live streaming from Space Station
objects crossing your sky now

COSMOS 2184

Track COSMOS 2184 now!
10-day predictions
COSMOS 2184 is classified as:


NORAD ID: 21937
Int'l Code: 1992-020A
Perigee: 970.2 km
Apogee: 1,020.6 km
Inclination: 82.9 °
Period: 104.9 minutes
Semi major axis: 7366 km
RCS: 2.328 m2 (large)
Launch date: April 15, 1992
Source: Commonwealth of Independent States (former USSR) (CIS)
Launch site: PLESETSK MISSILE AND SPACE COMPLEX (PKMTR)
aabbcc
Your satellite tracking list
Your tracking list is empty




NASA's NSSDC Master Catalog

Two Line Element Set (TLE):
1 21937U 92020A   18023.11617333  .00000010  00000-0 -53628-5 0  9995
2 21937  82.9303 223.6128 0034211  42.7492  74.0878 13.73147817291639
Source of the keplerian elements: AFSPC